FW1404 Weather Reports


Display with metric or nautical units.
time (UTC)temp
F
wind
direction
speed
MPH
gust
MPH
rain 1hr
in
rain 24hr
in
rain mn
in
humidity
%
barometer
mb
20260902002704 61 268 6.0 11.0 0.00 0.00 0.00 79 1018.8
20260902002453 61 248 5.0 11.0 0.00 0.00 0.00 79 1018.8
20260902001705 61 265 5.0 14.0 0.00 0.00 0.00 80 1018.9
20260902001203 61 245 5.0 14.0 0.00 0.00 0.00 80 1018.9
20260902000704 61 272 6.0 10.0 0.00 0.00 0.00 80 1018.9
20260902000204 61 289 4.0 11.0 0.00 0.00 0.00 80 1018.9
20260901235703 61 245 6.0 14.0 0.00 0.00 0.00 80 1018.9
20260901235203 61 252 4.0 14.0 0.00 0.00 0.00 80 1018.8
20260901234704 61 228 5.0 10.0 0.00 0.00 0.00 80 1018.8
20260901234456 61 249 5.0 10.0 0.00 0.00 0.00 81 1018.8
20260901233703 61 256 7.0 10.0 0.00 0.00 0.00 81 1018.8
20260901233406 60 251 3.0 6.0 0.00 0.00 0.00 80 1018.6
20260901233339 60 260 4.0 7.0 0.00 0.00 0.00 80 1018.6
20260901233112 60 251 4.0 5.0 0.00 0.00 0.00 80 1018.6
20260901233107 60 269 3.0 6.0 0.00 0.00 0.00 80 1018.6
20260901231205 60 251 2.0 5.0 0.00 0.00 0.00 80 1018.5
20260901230703 61 251 3.0 5.0 0.00 0.00 0.00 79 1018.6
20260901230456 61 251 2.0 6.0 0.00 0.00 0.00 79 1018.7
20260901225704 61 249 2.0 6.0 0.00 0.00 0.00 79 1018.5
20260901225204 61 252 4.0 5.0 0.00 0.00 0.00 79 1018.6
20260901224645 61 251 3.0 4.0 0.00 0.00 0.00 78 1018.5
20260901224145 61 252 2.0 3.0 0.00 0.00 0.00 78 1018.5
20260901223633 61 252 2.0 4.0 0.00 0.00 0.00 78 1018.5
20260901223130 62 252 2.0 4.0 0.00 0.00 0.00 78 1018.6
20260901222914 62 252 2.0 5.0 0.00 0.00 0.00 78 1018.6
20260901222124 62 251 3.0 5.0 0.00 0.00 0.00 77 1018.6
20260901221623 62 251 3.0 4.0 0.00 0.00 0.00 77 1018.6
20260901221123 62 252 3.0 7.0 0.00 0.00 0.00 77 1018.6
20260901220623 62 252 4.0 7.0 0.00 0.00 0.00 77 1018.5
20260901220123 62 246 5.0 6.0 0.00 0.00 0.00 78 1018.5
20260901215912 62 248 2.0 5.0 0.00 0.00 0.00 78 1018.5
20260901215122 62 248 4.0 5.0 0.00 0.00 0.00 78 1018.5
20260901214624 62 249 3.0 6.0 0.00 0.00 0.00 78 1018.5
20260901214414 62 249 5.0 6.0 0.00 0.00 0.00 78 1018.5
20260901213621 62 249 4.0 6.0 0.00 0.00 0.00 78 1018.5
20260901213123 62 249 3.0 6.0 0.00 0.00 0.00 79 1018.5
20260901212622 61 245 4.0 9.0 0.00 0.00 0.00 79 1018.5
20260901212121 61 231 3.0 9.0 0.00 0.00 0.00 80 1018.6
20260901211621 61 238 5.0 9.0 0.00 0.00 0.00 81 1018.5
20260901211124 60 227 4.0 9.0 0.00 0.00 0.00 82 1018.5
20260901210621 60 241 4.0 6.0 0.00 0.00 0.00 82 1018.5
20260901210123 59 237 5.0 9.0 0.00 0.00 0.00 83 1018.5
20260901205620 58 229 4.0 9.0 0.00 0.00 0.00 83 1018.5
20260901205121 58 245 4.0 5.0 0.00 0.00 0.00 81 1018.4
20260901204908 58 289 2.0 4.0 0.00 0.00 0.00 81 1018.4
20260901204451 58 289 2.0 3.0 0.00 0.00 0.00 80 1018.2
20260901204146 58 289 2.0 4.0 0.00 0.00 0.00 81 1018.3
20260901203122 58 289 0.0 1.0 0.00 0.00 0.00 80 1018.2
20260901202913 58 289 0.0 1.0 0.00 0.00 0.00 79 1018.2
20260901202123 58 289 0.0 1.0 0.00 0.00 0.00 79 1018.1
20260901201906 58 289 0.0 0.0 0.00 0.00 0.00 79 1018.2
20260901201121 59 289 0.0 1.0 0.00 0.00 0.00 79 1018.2
20260901200621 59 289 0.0 1.0 0.00 0.00 0.00 78 1018.1
20260901200120 59 289 0.0 1.0 0.00 0.00 0.00 78 1018.1
20260901195858 59 289 0.0 2.0 0.00 0.00 0.00 78 1018.2
20260901195413 59 289 0.0 2.0 0.00 0.00 0.00 78 1018.2
20260901194621 59 289 0.0 2.0 0.00 0.00 0.00 78 1018.3
20260901194121 60 289 2.0 2.0 0.00 0.00 0.00 77 1018.2
20260901193620 60 289 2.0 2.0 0.00 0.00 0.00 77 1018.3
20260901193413 60 289 1.0 2.0 0.00 0.00 0.00 77 1018.3
20260901192621 60 289 0.0 2.0 0.00 0.00 0.00 77 1018.3
20260901192121 60 289 0.0 1.0 0.00 0.00 0.00 77 1018.2
20260901191906 60 289 0.0 0.0 0.00 0.00 0.00 76 1018.2
20260901191424 61 289 0.0 0.0 0.00 0.00 0.00 76 1018.1
20260901190621 61 289 0.0 0.0 0.00 0.00 0.00 76 1018.1
20260901190120 61 289 0.0 0.0 0.00 0.00 0.00 76 1018.1
20260901185621 61 289 0.0 2.0 0.00 0.00 0.00 76 1018.1
20260901185118 62 289 0.0 2.0 0.00 0.00 0.00 76 1018.1
20260901184620 62 289 0.0 2.0 0.00 0.00 0.00 76 1018.0
20260901184118 62 289 0.0 2.0 0.00 0.00 0.00 76 1018.0
20260901183620 62 289 0.0 1.0 0.00 0.00 0.00 76 1017.9
20260901183359 62 289 0.0 2.0 0.00 0.00 0.00 76 1017.8
20260901182621 62 289 0.0 2.0 0.00 0.00 0.00 75 1017.8
20260901182119 62 289 1.0 2.0 0.00 0.00 0.00 75 1017.7
20260901181904 62 289 1.0 2.0 0.00 0.00 0.00 75 1017.7
20260901181409 62 289 1.0 3.0 0.00 0.00 0.00 75 1017.8
20260901180618 62 289 1.0 3.0 0.00 0.00 0.00 75 1017.7
20260901180410 62 289 2.0 4.0 0.00 0.00 0.00 75 1017.7
20260901175907 63 289 2.0 4.0 0.00 0.00 0.00 75 1017.7
20260901175117 63 289 2.0 3.0 0.00 0.00 0.00 74 1017.7
20260901174618 63 289 3.0 4.0 0.00 0.00 0.00 74 1017.7
20260901174117 64 289 3.0 4.0 0.00 0.00 0.00 73 1017.7
20260901173618 64 289 2.0 3.0 0.00 0.00 0.00 73 1017.6
20260901173117 64 289 2.0 3.0 0.00 0.00 0.00 73 1017.7
20260901172906 64 289 1.0 4.0 0.00 0.00 0.00 73 1017.7
20260901172117 64 289 3.0 4.0 0.00 0.00 0.00 72 1017.7
20260901171617 65 310 3.0 6.0 0.00 0.00 0.00 72 1017.8
20260901171117 65 315 2.0 7.0 0.00 0.00 0.00 72 1017.8
20260901170618 65 23 3.0 9.0 0.00 0.00 0.00 71 1017.8
20260901170411 66 359 4.0 10.0 0.00 0.00 0.00 70 1017.9
20260901165906 67 303 4.0 13.0 0.00 0.00 0.00 70 1017.9
20260901165117 68 335 7.0 18.0 0.00 0.00 0.00 71 1018.0
20260901164616 69 324 9.0 18.0 0.00 0.00 0.00 70 1018.0
20260901164119 70 304 10.0 15.0 0.00 0.00 0.00 67 1018.0
20260901163616 70 265 4.0 11.0 0.00 0.00 0.00 67 1017.5
20260901163117 70 228 6.0 14.0 0.00 0.00 0.00 67 1017.5
20260901162603 71 259 8.0 14.0 0.00 0.00 0.00 67 1017.4
20260901162103 71 259 8.0 13.0 0.00 0.00 0.00 67 1017.4
20260901161604 70 222 5.0 10.0 0.00 0.00 0.00 67 1017.2
20260901161104 70 293 6.0 12.0 0.00 0.00 0.00 67 1017.2
20260901160604 70 292 8.0 12.0 0.00 0.00 0.00 67 1017.1
20260901160106 70 256 6.0 10.0 0.00 0.00 0.00 67 1017.1
20260901155605 70 231 5.0 12.0 0.00 0.00 0.00 67 1017.0
20260901155105 71 229 8.0 12.0 0.00 0.00 0.00 67 1017.1
20260901154603 71 273 6.0 12.0 0.00 0.00 0.00 66 1017.1
20260901154103 71 210 5.0 12.0 0.00 0.00 0.00 67 1017.0
20260901153605 71 245 4.0 12.0 0.00 0.00 0.00 66 1016.9
20260901153104 71 253 6.0 12.0 0.00 0.00 0.00 65 1017.1
20260901152603 71 275 7.0 13.0 0.00 0.00 0.00 65 1017.0
20260901152145 71 206 9.0 13.0 0.00 0.00 0.00 66 1017.1
20260901152131 71 232 6.0 13.0 0.00 0.00 0.00 65 1017.1
20260901151105 71 259 7.0 14.0 0.00 0.00 0.00 66 1017.1
20260901150603 71 229 6.0 14.0 0.00 0.00 0.00 65 1017.2
20260901150106 71 229 5.0 13.0 0.00 0.00 0.00 66 1017.1
20260901145605 71 231 6.0 15.0 0.00 0.00 0.00 66 1017.1
20260901145105 71 239 9.0 15.0 0.00 0.00 0.00 65 1017.1
20260901144605 71 224 3.0 14.0 0.00 0.00 0.00 65 1017.2
20260901144103 71 235 6.0 15.0 0.00 0.00 0.00 65 1017.2
20260901143655 71 269 8.0 15.0 0.00 0.00 0.00 65 1017.4
20260901143639 71 268 10.0 15.0 0.00 0.00 0.00 64 1017.2
20260901142604 71 218 8.0 15.0 0.00 0.00 0.00 65 1017.2
20260901142102 71 241 8.0 19.0 0.00 0.00 0.00 64 1017.4
20260901141604 71 244 11.0 19.0 0.00 0.00 0.00 64 1017.4
20260901141104 71 253 10.0 17.0 0.00 0.00 0.00 65 1017.5
20260901140603 71 253 7.0 13.0 0.00 0.00 0.00 65 1017.4
20260901140104 71 245 8.0 13.0 0.00 0.00 0.00 65 1017.5
20260901135603 71 277 7.0 12.0 0.00 0.00 0.00 65 1017.4
20260901135103 72 238 4.0 14.0 0.00 0.00 0.00 65 1017.4
20260901134607 72 277 10.0 17.0 0.00 0.00 0.00 64 1017.5
20260901134102 72 252 13.0 18.0 0.00 0.00 0.00 63 1017.5
20260901133603 72 217 8.0 18.0 0.00 0.00 0.00 63 1017.5
20260901133102 72 280 9.0 13.0 0.00 0.00 0.00 64 1017.5
20260901132603 72 262 8.0 15.0 0.00 0.00 0.00 66 1017.5
20260901132347 71 263 10.0 15.0 0.00 0.00 0.00 68 1017.6
20260901131605 70 270 9.0 12.0 0.00 0.00 0.00 67 1017.7
20260901131105 69 290 3.0 12.0 0.00 0.00 0.00 67 1017.8
20260901130842 69 256 7.0 13.0 0.00 0.00 0.00 67 1017.7
20260901130105 70 283 9.0 13.0 0.00 0.00 0.00 66 1017.7
20260901125605 70 246 6.0 13.0 0.00 0.00 0.00 65 1017.7
20260901125104 71 251 6.0 15.0 0.00 0.00 0.00 65 1017.6
20260901124845 71 265 8.0 17.0 0.00 0.00 0.00 63 1017.8
20260901124104 72 280 8.0 17.0 0.00 0.00 0.00 62 1017.7
20260901123604 73 228 10.0 16.0 0.00 0.00 0.00 64 1017.6
20260901123351 73 266 8.0 17.0 0.00 0.00 0.00 65 1017.7
20260901122605 72 231 5.0 17.0 0.00 0.00 0.00 64 1017.6
20260901122107 73 287 9.0 14.0 0.00 0.00 0.00 64 1017.6
20260901121604 72 265 9.0 14.0 0.00 0.00 0.00 66 1017.8
20260901121104 72 227 8.0 15.0 0.00 0.00 0.00 65 1017.8
20260901120604 72 282 9.0 17.0 0.00 0.00 0.00 65 1017.8
20260901120407 71 246 10.0 17.0 0.00 0.00 0.00 65 1017.8
20260901115851 71 214 8.0 16.0 0.00 0.00 0.00 65 1017.8
20260901115104 71 262 10.0 15.0 0.00 0.00 0.00 65 1017.7
20260901114605 71 268 8.0 15.0 0.00 0.00 0.00 65 1017.8
20260901114058 72 294 9.0 15.0 0.00 0.00 0.00 66 1017.8
20260901113552 71 232 8.0 17.0 0.00 0.00 0.00 66 1017.8
20260901113045 71 249 8.0 20.0 0.00 0.00 0.00 65 1017.7
20260901112538 70 301 10.0 20.0 0.00 0.00 0.00 64 1017.7
20260901112336 71 245 11.0 19.0 0.00 0.00 0.00 65 1017.7
20260901111535 71 246 11.0 18.0 0.00 0.00 0.00 65 1017.7
20260901111035 71 214 10.0 14.0 0.00 0.00 0.00 65 1017.7
20260901110533 70 290 4.0 18.0 0.00 0.00 0.00 67 1017.7
20260901110034 70 272 10.0 21.0 0.00 0.00 0.00 66 1017.7
20260901105533 70 269 13.0 21.0 0.00 0.00 0.00 66 1017.7
20260901105032 69 220 10.0 17.0 0.00 0.00 0.00 66 1017.6
20260901104533 69 238 11.0 17.0 0.00 0.00 0.00 66 1017.5
20260901104033 69 290 9.0 16.0 0.00 0.00 0.00 68 1017.5
20260901103532 68 337 10.0 17.0 0.00 0.00 0.00 68 1017.6
20260901103027 69 237 11.0 17.0 0.00 0.00 0.00 67 1017.5
20260901102522 69 251 9.0 15.0 0.00 0.00 0.00 67 1017.6
20260901102022 69 284 7.0 18.0 0.00 0.00 0.00 68 1017.5
20260901101523 69 310 9.0 18.0 0.00 0.00 0.00 63 1017.5
20260901101018 68 263 9.0 17.0 0.00 0.00 0.00 65 1017.2
20260901100518 68 248 9.0 19.0 0.00 0.00 0.00 64 1017.2
20260901100255 68 242 10.0 20.0 0.00 0.00 0.00 66 1017.4
20260901095510 68 263 12.0 20.0 0.00 0.00 0.00 66 1017.4
20260901095008 68 276 15.0 18.0 0.00 0.00 0.00 68 1017.2
20260901094508 67 344 9.0 17.0 0.00 0.00 0.00 68 1017.4
20260901094009 67 253 8.0 17.0 0.00 0.00 0.00 68 1017.4
20260901093509 66 255 6.0 17.0 0.00 0.00 0.00 70 1017.4
20260901093245 66 204 11.0 19.0 0.00 0.00 0.00 70 1017.5
20260901092509 66 282 11.0 23.0 0.00 0.00 0.00 70 1017.5
20260901092007 66 251 12.0 23.0 0.00 0.00 0.00 70 1017.2
20260901091509 66 266 10.0 20.0 0.00 0.00 0.00 72 1017.2
20260901091007 65 238 7.0 14.0 0.00 0.00 0.00 71 1017.2
20260901090510 65 251 9.0 16.0 0.00 0.00 0.00 71 1017.2
20260901090007 65 266 11.0 16.0 0.00 0.00 0.00 71 1017.1
20260901085509 65 273 9.0 19.0 0.00 0.00 0.00 72 1017.0
20260901085007 65 255 11.0 19.0 0.00 0.00 0.00 72 1017.0
20260901084509 65 251 8.0 21.0 0.00 0.00 0.00 72 1016.9
20260901084006 65 284 13.0 21.0 0.00 0.00 0.00 72 1016.9
20260901083508 65 252 10.0 17.0 0.00 0.00 0.00 72 1016.9
20260901083249 65 280 8.0 17.0 0.00 0.00 0.00 74 1016.8
20260901082511 64 272 8.0 19.0 0.00 0.00 0.00 74 1016.8
20260901082007 64 262 9.0 19.0 0.00 0.00 0.00 74 1016.8
20260901081510 64 248 8.0 18.0 0.00 0.00 0.00 74 1016.8
20260901081007 64 282 15.0 19.0 0.00 0.00 0.00 74 1016.7
20260901080510 64 238 13.0 19.0 0.00 0.00 0.00 74 1016.8
20260901080006 64 232 9.0 18.0 0.00 0.00 0.00 75 1016.8
20260901075755 64 249 9.0 16.0 0.00 0.00 0.00 75 1016.7
20260901075004 64 284 8.0 16.0 0.00 0.00 0.00 75 1016.8
20260901074756 64 238 11.0 14.0 0.00 0.00 0.00 75 1016.7
20260901074004 64 262 8.0 18.0 0.00 0.00 0.00 75 1016.7
20260901073753 64 304 11.0 18.0 0.00 0.00 0.00 75 1016.6
20260901073005 63 284 10.0 16.0 0.00 0.00 0.00 75 1016.5
20260901072506 64 318 11.0 17.0 0.00 0.00 0.00 75 1016.5
20260901072007 64 255 9.0 17.0 0.00 0.00 0.00 75 1016.4
20260901071508 64 263 9.0 17.0 0.00 0.00 0.00 76 1016.4
20260901071007 63 248 6.0 17.0 0.00 0.00 0.00 76 1016.3
20260901070506 63 258 8.0 14.0 0.00 0.00 0.00 76 1016.2
20260901070004 62 263 8.0 14.0 0.00 0.00 0.00 76 1016.2
20260901065503 62 231 8.0 13.0 0.00 0.00 0.00 77 1016.2
20260901065004 62 266 7.0 14.0 0.00 0.00 0.00 77 1016.1
20260901064745 62 248 8.0 14.0 0.00 0.00 0.00 78 1016.0
20260901064005 62 224 9.0 17.0 0.00 0.00 0.00 78 1016.0
20260901063750 61 289 9.0 23.0 0.00 0.00 0.00 77 1016.0
20260901063257 61 244 8.0 23.0 0.00 0.00 0.00 78 1015.8
20260901062742 61 208 9.0 15.0 0.00 0.00 0.00 78 1015.8
20260901062003 61 234 8.0 22.0 0.00 0.00 0.00 78 1015.8
20260901061440 61 255 11.0 22.0 0.00 0.00 0.00 78 1015.9
20260901060933 61 246 6.0 16.0 0.00 0.00 0.00 78 1015.8
20260901060433 61 222 5.0 18.0 0.00 0.00 0.00 78 1015.8
20260901060211 61 248 11.0 18.0 0.00 0.00 0.00 78 1015.7
20260901055432 61 320 6.0 17.0 0.00 0.00 0.00 78 1015.7
20260901054904 61 244 9.0 18.0 0.00 0.00 0.00 78 1015.5
20260901054653 60 280 13.0 18.0 0.00 0.00 0.00 78 1015.5
20260901053903 60 206 10.0 17.0 0.00 0.00 0.00 79 1015.4
20260901053405 60 246 10.0 16.0 0.00 0.00 0.00 79 1015.4
20260901052905 60 259 7.0 15.0 0.00 0.00 0.00 79 1015.4
20260901052403 60 246 9.0 14.0 0.00 0.00 0.00 80 1015.2
20260901051903 60 283 7.0 13.0 0.00 0.00 0.00 80 1015.1
20260901051404 60 244 6.0 13.0 0.00 0.00 0.00 80 1015.1
20260901050903 60 225 8.0 14.0 0.00 0.00 0.00 80 1015.0
20260901050404 60 259 8.0 15.0 0.00 0.00 0.00 80 1015.0
20260901045904 59 234 6.0 15.0 0.00 0.00 0.00 80 1014.9
20260901045406 59 235 7.0 15.0 0.00 0.00 0.00 81 1014.9
20260901045150 59 266 9.0 13.0 0.00 0.00 0.00 81 1014.8
20260901044403 59 203 6.0 13.0 0.00 0.00 0.00 81 1014.8
20260901043902 58 228 9.0 13.0 0.00 0.00 0.00 81 1014.9
20260901043403 58 272 8.0 12.0 0.00 0.00 0.00 81 1014.8
20260901042902 58 232 7.0 14.0 0.00 0.00 0.00 81 1014.7
20260901042649 58 245 6.0 16.0 0.00 0.00 0.00 81 1014.7
20260901041901 58 235 7.0 16.0 0.00 0.00 0.00 81 1014.7
20260901041403 58 259 8.0 14.0 0.00 0.00 0.00 81 1014.6
20260901041149 58 242 7.0 12.0 0.00 0.00 0.00 82 1014.6
20260901040403 58 245 6.0 14.0 0.00 0.00 0.00 82 1014.6
20260901035903 58 232 7.0 14.0 0.00 0.00 0.00 82 1014.6
20260901035651 58 237 8.0 12.0 0.00 0.00 0.00 82 1014.6
20260901034901 58 241 5.0 13.0 0.00 0.00 0.00 82 1014.5
20260901034402 58 238 9.0 13.0 0.00 0.00 0.00 82 1014.4
20260901033900 58 260 7.0 11.0 0.00 0.00 0.00 82 1014.5
20260901033401 58 238 7.0 11.0 0.00 0.00 0.00 82 1014.4
20260901032900 58 221 7.0 12.0 0.00 0.00 0.00 82 1014.4
20260901032402 58 266 8.0 12.0 0.00 0.00 0.00 81 1014.4
20260901032146 58 252 5.0 10.0 0.00 0.00 0.00 81 1014.5
20260901031653 58 239 6.0 14.0 0.00 0.00 0.00 81 1014.3
20260901030900 58 231 11.0 14.0 0.00 0.00 0.00 81 1014.3
20260901030401 58 245 6.0 9.0 0.00 0.00 0.00 80 1014.4
20260901025859 58 238 6.0 10.0 0.00 0.00 0.00 80 1014.4
20260901025401 58 242 5.0 10.0 0.00 0.00 0.00 80 1014.3
20260901025142 58 229 6.0 10.0 0.00 0.00 0.00 80 1014.3
20260901024402 58 239 6.0 12.0 0.00 0.00 0.00 80 1014.3
20260901023901 58 234 6.0 12.0 0.00 0.00 0.00 80 1014.4
20260901023402 58 225 6.0 12.0 0.00 0.00 0.00 80 1014.3
20260901022900 58 258 7.0 12.0 0.00 0.00 0.00 80 1014.4
20260901022400 59 242 6.0 10.0 0.00 0.00 0.00 80 1014.4
20260901021900 59 213 5.0 10.0 0.00 0.00 0.00 80 1014.3
20260901021442 59 234 7.0 11.0 0.00 0.00 0.00 79 1014.3
20260901021428 59 235 6.0 11.0 0.00 0.00 0.00 79 1014.4
20260901020446 60 238 6.0 11.0 0.00 0.00 0.00 79 1014.4
20260901020428 59 229 6.0 9.0 0.00 0.00 0.00 79 1014.4
20260901015649 60 234 4.0 11.0 0.00 0.00 0.00 78 1014.3
20260901015145 60 227 6.0 10.0 0.00 0.00 0.00 77 1014.4
20260901014400 60 227 7.0 10.0 0.00 0.00 0.00 76 1014.4
20260901013858 60 234 5.0 14.0 0.00 0.00 0.00 76 1014.4
20260901013359 61 232 4.0 14.0 0.00 0.00 0.00 76 1014.4
20260901012858 61 256 5.0 9.0 0.00 0.00 0.00 76 1014.3
20260901012400 61 221 4.0 9.0 0.00 0.00 0.00 76 1014.3
20260901011858 61 229 5.0 9.0 0.00 0.00 0.00 76 1014.4
20260901011400 61 268 5.0 13.0 0.00 0.00 0.00 76 1014.3
20260901010857 61 227 6.0 13.0 0.00 0.00 0.00 76 1014.3
20260901010644 61 251 7.0 11.0 0.00 0.00 0.00 76 1014.4
20260901005857 61 225 6.0 11.0 0.00 0.00 0.00 76 1014.4
20260901005358 61 225 8.0 11.0 0.00 0.00 0.00 77 1014.3
20260901004857 61 251 6.0 13.0 0.00 0.00 0.00 77 1014.3
20260901004359 61 244 5.0 13.0 0.00 0.00 0.00 77 1014.3
20260901003857 61 268 6.0 10.0 0.00 0.00 0.00 77 1014.4
20260901003358 61 272 7.0 10.0 0.00 0.00 0.00 77 1014.3